Time,TemperatureF,DewpointF,PressureIn,WindDirection,WindDirectionDegrees,WindSpeedMPH,WindSpeedGustMPH,Humidity,HourlyPrecipIn,Conditions,Clouds,dailyrainin,SolarRadiationWatts/m^2,SoftwareType,DateUTC
2013-06-02 00:03:00,67.0,-99.9,-100.00,SSW,193,3.0,5.0,71,0.00,,,0.00,0.000000,,2013-06-02 04:03:00,
2013-06-02 00:13:00,67.0,57.0,-100.00,SSW,193,3.0,5.0,71,0.00,,,0.00,0.000000,,2013-06-02 04:13:00,
2013-06-02 00:33:00,66.0,56.0,-100.00,SSE,167,3.0,5.0,71,0.00,,,0.00,0.000000,,2013-06-02 04:33:00,
2013-06-02 00:42:00,66.0,56.0,-100.00,SSE,167,3.0,5.0,71,0.00,,,0.00,0.000000,,2013-06-02 04:42:00,
2013-06-02 00:53:00,66.0,56.0,-100.00,SSE,167,3.0,5.0,71,0.00,,,0.00,0.000000,,2013-06-02 04:53:00,
2013-06-02 01:03:00,66.0,56.0,-100.00,SSE,167,3.0,5.0,71,0.00,,,0.00,0.000000,,2013-06-02 05:03:00,
2013-06-02 01:12:00,66.0,56.0,-100.00,SSE,167,3.0,5.0,71,0.00,,,0.00,0.000000,,2013-06-02 05:12:00,
2013-06-02 01:32:00,66.0,57.0,-100.00,SW,235,2.0,5.0,72,0.00,,,0.00,0.000000,,2013-06-02 05:32:00,
2013-06-02 01:42:00,66.0,57.0,-100.00,SW,235,2.0,5.0,72,0.00,,,0.00,0.000000,,2013-06-02 05:42:00,
2013-06-02 01:52:00,66.0,57.0,-100.00,SW,235,2.0,5.0,72,0.00,,,0.00,0.000000,,2013-06-02 05:52:00,
2013-06-02 02:01:00,66.0,57.0,-100.00,SW,235,2.0,5.0,72,0.00,,,0.00,0.000000,,2013-06-02 06:01:00,
2013-06-02 02:12:00,66.0,57.0,-100.00,SW,235,2.0,5.0,72,0.00,,,0.00,0.000000,,2013-06-02 06:12:00,
2013-06-02 02:32:00,64.0,57.0,-100.00,SSW,213,1.0,2.0,77,0.00,,,0.00,0.000000,,2013-06-02 06:32:00,
2013-06-02 02:42:00,64.0,57.0,-100.00,SSW,213,1.0,2.0,77,0.00,,,0.00,0.000000,,2013-06-02 06:42:00,
2013-06-02 02:52:00,64.0,57.0,-100.00,SSW,213,1.0,2.0,77,0.00,,,0.00,0.000000,,2013-06-02 06:52:00,
2013-06-02 03:02:00,64.0,57.0,-100.00,SSW,213,1.0,2.0,77,0.00,,,0.00,0.000000,,2013-06-02 07:02:00,
2013-06-02 03:11:00,64.0,57.0,-100.00,SSW,213,1.0,2.0,77,0.00,,,0.00,0.000000,,2013-06-02 07:11:00,
2013-06-02 03:32:00,64.0,58.0,-100.00,South,175,3.0,6.0,80,0.00,,,0.00,0.000000,,2013-06-02 07:32:00,
2013-06-02 03:42:00,64.0,58.0,-100.00,South,175,3.0,6.0,80,0.00,,,0.00,0.000000,,2013-06-02 07:42:00,
2013-06-02 03:52:00,64.0,58.0,-100.00,South,175,3.0,6.0,80,0.00,,,0.00,0.000000,,2013-06-02 07:52:00,
2013-06-02 04:02:00,64.0,58.0,-100.00,South,175,3.0,6.0,80,0.00,,,0.00,0.000000,,2013-06-02 08:02:00,
2013-06-02 04:12:00,64.0,58.0,-100.00,South,175,3.0,6.0,80,0.00,,,0.00,0.000000,,2013-06-02 08:12:00,
2013-06-02 04:32:00,64.0,57.0,-100.00,WSW,247,1.0,4.0,78,0.00,,,0.00,0.000000,,2013-06-02 08:32:00,
2013-06-02 04:42:00,64.0,57.0,-100.00,WSW,247,1.0,4.0,78,0.00,,,0.00,0.000000,,2013-06-02 08:42:00,
2013-06-02 04:52:00,64.0,57.0,-100.00,WSW,247,1.0,4.0,78,0.00,,,0.00,0.000000,,2013-06-02 08:52:00,
2013-06-02 05:01:00,64.0,57.0,-100.00,WSW,247,1.0,4.0,78,0.00,,,0.00,0.000000,,2013-06-02 09:01:00,
2013-06-02 05:11:00,64.0,57.0,-100.00,WSW,247,1.0,4.0,78,0.00,,,0.00,0.000000,,2013-06-02 09:11:00,
2013-06-02 05:33:00,64.0,57.0,-100.00,West,272,1.0,5.0,78,0.00,,,0.00,0.000000,,2013-06-02 09:33:00,
2013-06-02 05:43:00,64.0,57.0,-100.00,West,272,1.0,5.0,78,0.00,,,0.00,0.000000,,2013-06-02 09:43:00,
2013-06-02 05:53:00,64.0,57.0,-100.00,West,272,1.0,5.0,78,0.00,,,0.00,0.000000,,2013-06-02 09:53:00,
2013-06-02 06:02:00,64.0,57.0,-100.00,West,272,1.0,5.0,78,0.00,,,0.00,0.000000,,2013-06-02 10:02:00,
2013-06-02 06:12:00,64.0,57.0,-100.00,West,272,1.0,5.0,78,0.00,,,0.00,0.000000,,2013-06-02 10:12:00,
2013-06-02 06:33:00,64.0,57.0,-100.00,WSW,251,2.0,5.0,78,0.00,,,0.00,1.000000,,2013-06-02 10:33:00,
2013-06-02 06:42:00,64.0,57.0,-100.00,WSW,251,2.0,5.0,78,0.00,,,0.00,1.000000,,2013-06-02 10:42:00,
2013-06-02 06:52:00,64.0,57.0,-100.00,WSW,251,2.0,5.0,78,0.00,,,0.00,1.000000,,2013-06-02 10:52:00,
2013-06-02 07:02:00,64.0,57.0,-100.00,WSW,251,2.0,5.0,78,0.00,,,0.00,1.000000,,2013-06-02 11:02:00,
2013-06-02 07:12:00,64.0,57.0,-100.00,WSW,251,2.0,5.0,78,0.00,,,0.00,1.000000,,2013-06-02 11:12:00,
2013-06-02 07:32:00,63.0,57.0,-100.00,SE,141,1.0,4.0,81,0.00,,,0.00,22.000000,,2013-06-02 11:32:00,
2013-06-02 07:42:00,63.0,57.0,-100.00,SE,141,1.0,4.0,81,0.00,,,0.00,22.000000,,2013-06-02 11:42:00,
2013-06-02 07:52:00,63.0,57.0,-100.00,SE,141,1.0,4.0,81,0.00,,,0.00,22.000000,,2013-06-02 11:52:00,
2013-06-02 08:02:00,63.0,57.0,-100.00,SE,141,1.0,4.0,81,0.00,,,0.00,22.000000,,2013-06-02 12:02:00,
2013-06-02 08:11:00,63.0,57.0,-100.00,SE,141,1.0,4.0,81,0.00,,,0.00,22.000000,,2013-06-02 12:11:00,
2013-06-02 08:32:00,69.0,62.0,-100.00,SSW,197,2.0,5.0,78,0.00,,,0.00,129.000000,,2013-06-02 12:32:00,
2013-06-02 08:42:00,69.0,62.0,-100.00,SSW,197,2.0,5.0,78,0.00,,,0.00,129.000000,,2013-06-02 12:42:00,
2013-06-02 08:53:00,69.0,62.0,-100.00,SSW,197,2.0,5.0,78,0.00,,,0.00,129.000000,,2013-06-02 12:53:00,
2013-06-02 09:01:00,69.0,62.0,-100.00,SSW,197,2.0,5.0,78,0.00,,,0.00,129.000000,,2013-06-02 13:01:00,
2013-06-02 09:12:00,69.0,62.0,-100.00,SSW,197,2.0,5.0,78,0.00,,,0.00,129.000000,,2013-06-02 13:12:00,
2013-06-02 09:42:00,69.0,60.0,-100.00,SW,220,3.0,7.0,74,0.00,,,0.00,201.000000,,2013-06-02 13:42:00,
2013-06-02 09:52:00,69.0,60.0,-100.00,SW,220,3.0,7.0,74,0.00,,,0.00,201.000000,,2013-06-02 13:52:00,
2013-06-02 10:02:00,69.0,60.0,-100.00,SW,220,3.0,7.0,74,0.00,,,0.00,201.000000,,2013-06-02 14:02:00,
2013-06-02 10:11:00,69.0,60.0,-100.00,SW,220,3.0,7.0,74,0.00,,,0.00,201.000000,,2013-06-02 14:11:00,
2013-06-02 10:32:00,67.0,60.0,-100.00,WSW,239,4.0,7.0,79,0.00,,,0.00,131.000000,,2013-06-02 14:32:00,
2013-06-02 10:42:00,67.0,60.0,-100.00,WSW,239,4.0,7.0,79,0.00,,,0.00,131.000000,,2013-06-02 14:42:00,
2013-06-02 10:52:00,67.0,60.0,-100.00,WSW,239,4.0,7.0,79,0.00,,,0.00,131.000000,,2013-06-02 14:52:00,
2013-06-02 11:01:00,67.0,60.0,-100.00,WSW,239,4.0,7.0,79,0.00,,,0.00,131.000000,,2013-06-02 15:01:00,
2013-06-02 11:11:00,67.0,60.0,-100.00,WSW,239,4.0,7.0,79,0.00,,,0.00,131.000000,,2013-06-02 15:11:00,
2013-06-02 11:33:00,66.0,62.0,-100.00,WSW,242,3.0,9.0,87,0.00,,,0.00,137.000000,,2013-06-02 15:33:00,
2013-06-02 11:43:00,66.0,62.0,-100.00,WSW,242,3.0,9.0,87,0.00,,,0.00,137.000000,,2013-06-02 15:43:00,
2013-06-02 11:53:00,66.0,62.0,-100.00,WSW,242,3.0,9.0,87,0.00,,,0.00,137.000000,,2013-06-02 15:53:00,
2013-06-02 12:03:00,66.0,62.0,-100.00,WSW,242,3.0,9.0,87,0.00,,,0.00,137.000000,,2013-06-02 16:03:00,
2013-06-02 12:13:00,66.0,62.0,-100.00,WSW,242,3.0,9.0,87,0.00,,,0.00,137.000000,,2013-06-02 16:13:00,
2013-06-02 12:33:00,65.0,64.0,-100.00,SW,230,4.0,10.0,95,0.02,,,0.02,104.000000,,2013-06-02 16:33:00,
2013-06-02 12:42:00,65.0,64.0,-100.00,SW,230,4.0,10.0,95,0.02,,,0.02,104.000000,,2013-06-02 16:42:00,
2013-06-02 12:53:00,65.0,64.0,-100.00,SW,230,4.0,10.0,95,0.02,,,0.02,104.000000,,2013-06-02 16:53:00,
2013-06-02 13:02:00,65.0,64.0,-100.00,SW,230,4.0,10.0,95,0.02,,,0.02,104.000000,,2013-06-02 17:02:00,
2013-06-02 13:12:00,65.0,64.0,-100.00,SW,230,4.0,10.0,95,0.02,,,0.02,104.000000,,2013-06-02 17:12:00,
2013-06-02 13:33:00,66.0,64.0,-100.00,SW,234,4.0,8.0,93,0.02,,,0.04,191.000000,,2013-06-02 17:33:00,
2013-06-02 13:42:00,66.0,64.0,-100.00,SW,234,4.0,8.0,93,0.02,,,0.04,191.000000,,2013-06-02 17:42:00,
2013-06-02 13:52:00,66.0,64.0,-100.00,SW,234,4.0,8.0,93,0.02,,,0.04,191.000000,,2013-06-02 17:52:00,
2013-06-02 14:02:00,66.0,64.0,-100.00,SW,234,4.0,8.0,93,0.02,,,0.04,191.000000,,2013-06-02 18:02:00,
2013-06-02 14:11:00,66.0,64.0,-100.00,SW,234,4.0,8.0,93,0.02,,,0.04,191.000000,,2013-06-02 18:11:00,
2013-06-02 14:32:00,69.0,64.0,-100.00,WSW,251,4.0,9.0,85,0.00,,,0.04,418.000000,,2013-06-02 18:32:00,
2013-06-02 14:42:00,69.0,64.0,-100.00,WSW,251,4.0,9.0,85,0.00,,,0.04,418.000000,,2013-06-02 18:42:00,
2013-06-02 14:52:00,69.0,64.0,-100.00,WSW,251,4.0,9.0,85,0.00,,,0.04,418.000000,,2013-06-02 18:52:00,
2013-06-02 15:02:00,69.0,64.0,-100.00,WSW,251,4.0,9.0,85,0.00,,,0.04,418.000000,,2013-06-02 19:02:00,
2013-06-02 15:11:00,69.0,64.0,-100.00,WSW,251,4.0,9.0,85,0.00,,,0.04,418.000000,,2013-06-02 19:11:00,
2013-06-02 15:32:00,68.0,61.0,-100.00,WSW,253,6.0,13.0,78,0.00,,,0.04,314.000000,,2013-06-02 19:32:00,
2013-06-02 15:42:00,68.0,61.0,-100.00,WSW,253,6.0,13.0,78,0.00,,,0.04,314.000000,,2013-06-02 19:42:00,
2013-06-02 15:52:00,68.0,61.0,-100.00,WSW,253,6.0,13.0,78,0.00,,,0.04,314.000000,,2013-06-02 19:52:00,
2013-06-02 16:02:00,68.0,61.0,-100.00,WSW,253,6.0,13.0,78,0.00,,,0.04,314.000000,,2013-06-02 20:02:00,
2013-06-02 16:11:00,68.0,61.0,-100.00,WSW,253,6.0,13.0,78,0.00,,,0.04,314.000000,,2013-06-02 20:11:00,
2013-06-02 16:32:00,63.0,60.0,-100.00,WSW,246,3.0,11.0,91,0.04,,,0.08,96.000000,,2013-06-02 20:32:00,
2013-06-02 16:42:00,63.0,60.0,-100.00,WSW,246,3.0,11.0,91,0.04,,,0.08,96.000000,,2013-06-02 20:42:00,
2013-06-02 16:52:00,63.0,60.0,-100.00,WSW,246,3.0,11.0,91,0.04,,,0.08,96.000000,,2013-06-02 20:52:00,
2013-06-02 17:02:00,63.0,60.0,-100.00,WSW,246,3.0,11.0,91,0.04,,,0.08,96.000000,,2013-06-02 21:02:00,
2013-06-02 17:12:00,63.0,60.0,-100.00,WSW,246,3.0,11.0,91,0.04,,,0.08,96.000000,,2013-06-02 21:12:00,
2013-06-02 17:33:00,65.0,62.0,-100.00,SW,222,3.0,7.0,91,0.00,,,0.08,175.000000,,2013-06-02 21:33:00,
2013-06-02 17:43:00,65.0,62.0,-100.00,SW,222,3.0,7.0,91,0.00,,,0.08,175.000000,,2013-06-02 21:43:00,
2013-06-02 17:53:00,65.0,62.0,-100.00,SW,222,3.0,7.0,91,0.00,,,0.08,175.000000,,2013-06-02 21:53:00,
2013-06-02 18:03:00,65.0,62.0,-100.00,SW,222,3.0,7.0,91,0.00,,,0.08,175.000000,,2013-06-02 22:03:00,
2013-06-02 18:12:00,65.0,62.0,-100.00,SW,222,3.0,7.0,91,0.00,,,0.08,175.000000,,2013-06-02 22:12:00,
2013-06-02 18:33:00,66.0,63.0,-100.00,SSW,201,2.0,7.0,89,0.00,,,0.08,155.000000,,2013-06-02 22:33:00,
2013-06-02 18:42:00,66.0,63.0,-100.00,SSW,201,2.0,7.0,89,0.00,,,0.08,155.000000,,2013-06-02 22:42:00,
2013-06-02 18:53:00,66.0,63.0,-100.00,SSW,201,2.0,7.0,89,0.00,,,0.08,155.000000,,2013-06-02 22:53:00,
2013-06-02 19:02:00,66.0,63.0,-100.00,SSW,201,2.0,7.0,89,0.00,,,0.08,155.000000,,2013-06-02 23:02:00,
2013-06-02 19:12:00,66.0,63.0,-100.00,SSW,201,2.0,7.0,89,0.00,,,0.08,155.000000,,2013-06-02 23:12:00,
2013-06-02 19:32:00,64.0,63.0,-100.00,South,169,1.0,6.0,97,0.00,,,0.08,32.000000,,2013-06-02 23:32:00,
2013-06-02 19:43:00,64.0,63.0,-100.00,South,169,1.0,6.0,97,0.00,,,0.08,32.000000,,2013-06-02 23:43:00,
2013-06-02 19:53:00,64.0,63.0,-100.00,South,169,1.0,6.0,97,0.00,,,0.08,32.000000,,2013-06-02 23:53:00,
2013-06-02 20:01:00,64.0,63.0,-100.00,South,169,1.0,6.0,97,0.00,,,0.08,32.000000,,2013-06-03 00:01:00,
2013-06-02 20:12:00,64.0,63.0,-100.00,South,169,1.0,6.0,97,0.00,,,0.08,32.000000,,2013-06-03 00:12:00,
2013-06-02 21:32:00,63.0,63.0,-100.00,SSW,206,1.0,3.0,99,-99.99,,,0.13,0.000000,,2013-06-03 01:32:00,
2013-06-02 21:42:00,63.0,63.0,-100.00,SSW,206,1.0,3.0,99,-99.99,,,0.13,0.000000,,2013-06-03 01:42:00,
2013-06-02 21:52:00,63.0,63.0,-100.00,SSW,206,1.0,3.0,99,-99.99,,,0.13,0.000000,,2013-06-03 01:52:00,
2013-06-02 22:02:00,63.0,63.0,-100.00,SSW,206,1.0,3.0,99,-99.99,,,0.13,0.000000,,2013-06-03 02:02:00,
2013-06-02 22:12:00,63.0,63.0,-100.00,SSW,206,1.0,3.0,99,-99.99,,,0.13,0.000000,,2013-06-03 02:12:00,
2013-06-02 22:32:00,63.0,63.0,-100.00,South,190,1.0,4.0,100,0.05,,,0.18,0.000000,,2013-06-03 02:32:00,
2013-06-02 22:42:00,63.0,63.0,-100.00,South,190,1.0,4.0,100,0.05,,,0.18,0.000000,,2013-06-03 02:42:00,
2013-06-02 22:52:00,63.0,63.0,-100.00,South,190,1.0,4.0,100,0.05,,,0.18,0.000000,,2013-06-03 02:52:00,
2013-06-02 23:02:00,63.0,63.0,-100.00,South,190,1.0,4.0,100,0.05,,,0.18,0.000000,,2013-06-03 03:02:00,
2013-06-02 23:12:00,63.0,63.0,-100.00,South,190,1.0,4.0,100,0.05,,,0.18,0.000000,,2013-06-03 03:12:00,
2013-06-02 23:33:00,62.0,62.0,-100.00,West,272,2.0,6.0,100,0.00,,,0.18,0.000000,,2013-06-03 03:33:00,
2013-06-02 23:43:00,62.0,62.0,-100.00,West,272,2.0,6.0,100,0.00,,,0.18,0.000000,,2013-06-03 03:43:00,
2013-06-02 23:53:00,62.0,62.0,-100.00,West,272,2.0,6.0,100,0.00,,,0.18,0.000000,,2013-06-03 03:53:00,